Retour au catalogue

DELTA 1 DEB

ActifPO
NORAD 12185·DEBRIS·🇺🇸 United States

Lancé Mar 5, 1978 depuis Vandenberg Space Force Base

Loading…

Prochains Passages (prochaines 24 heures)

TLE

FraisSource: Space-Track

Époque: Sep 13, 2026, 22:00 UTC

1 12185U 78026AA  26256.91701696  .00000504  00000-0  26176-3 0  9994
2 12185  99.2596 251.8964 0090502  47.2497  15.7861 14.17349930341909

Suivez DELTA 1 DEB en temps réel avec AllMySat

Download on the App Store